Regional Weather Roundup
Issued by NWS Sioux Falls, SD

Home | Current Version | Previous Version | Text Only | Print | Product List | Glossary On
Versions: 1 2 3 4 5 6 7 8 9 10 11 12 13 14 15 16 17 18 19 20 21 22 23 24 25 26 27 28 29 30 31 32 33 34 35 36 37 38 39 40 41 42 43 44 45 46 47 48 49 50
000
ASUS43 KFSD 110310
RWRFSD

WEATHER ROUNDUP FOR SE SOUTH DAKOTA/SW MINNESOTA/NW IOWA
NATIONAL WEATHER SERVICE SIOUX FALLS SD
900 PM CST SUN DEC 10 2017

NOTE: "FAIR" INDICATES FEW OR NO CLOUDS BELOW 12,000 FEET WITH NO
SIGNIFICANT WEATHER AND OR OBSTRUCTIONS TO VISIBILITY.


SDZ038>040-050-052>070-110400-
SOUTHEAST SOUTH DAKOTA

CITY           SKY/WX    TMP DP  RH WIND       PRES   REMARKS
BROOKINGS      CLOUDY    32  28  85 SW8       29.97F WCI  25
CHAMBERLAIN    CLOUDY    40  25  53 W7        30.02F
HURON          CLOUDY    36  27  69 W5        29.99F
MADISON        FAIR      36  30  80 W8        29.97F
MITCHELL       CLOUDY    38  27  64 W9        30.01F
SIOUX FALLS    CLOUDY    34  29  82 S3        29.99F
WINNER         FAIR      46  18  32 W16       30.05F
YANKTON        CLOUDY    37  26  64 SW6       30.02F
$$

MNZ071-072-080-081-089-090-097-098-110400-
SOUTHWEST MINNESOTA

CITY           SKY/WX    TMP DP  RH WIND       PRES   REMARKS
FAIRMONT       CLOUDY    31  27  85 S5        30.01F WCI  26
JACKSON        CLOUDY    32  28  86 MISG      29.99F
LUVERNE        CLOUDY    32  28  86 S3        30.00F
MARSHALL       CLOUDY    31  26  82 S6        29.97F WCI  25
MONTEVIDEO     CLOUDY    32  25  74 CALM      29.97F
PIPESTONE      CLOUDY    32  27  80 SW8       29.96F WCI  25
REDWOOD FALLS  CLOUDY    32  25  75 S6        29.97F WCI  26
TRACY          CLOUDY    33  29  83 S5        29.96F WCI  29
WINDOM         CLOUDY    30  19  64 S3        29.98F
WORTHINGTON    CLOUDY    33  28  81 SW8       29.99F WCI  26
$$

IAZ001>003-012>014-020>022-031-032-NEZ013-014-SDZ071-110400-
NORTHWEST IOWA

CITY           SKY/WX    TMP DP  RH WIND       PRES   REMARKS
CHEROKEE       CLOUDY    32  27  81 S5        30.04F WCI  27
DENISON        CLOUDY    32  23  69 CALM      30.07F
ESTHERVILLE    CLOUDY    30  27  88 S3        30.01F
LE MARS        PTCLDY    32  27  80 S5        30.03F WCI  27
ORANGE CITY    PTCLDY    36  30  80 S5        30.01F
SHELDON        CLOUDY    34  28  80 CALM      30.00F
SIOUX CITY     CLOUDY    30  21  69 CALM      30.05F
SPENCER        CLOUDY    32  27  81 SW3       30.01F
STORM LAKE     CLOUDY    34  25  69 W8        30.03F WCI  27
$$

ABBREVIATIONS USED IN REMARKS
   TC - TEMPERATURE IN CELSIUS
  WCI - WIND CHILL INDEX
   HX - HEAT INDEX
  VSB - VISIBILITY




USA.gov is the U.S. government's official web portal to all federal, state and local government web resources and services.